TimePDT,TemperatureF,Dew PointF,Humidity,Sea Level PressureIn,VisibilityMPH,Wind Direction,Wind SpeedMPH,Gust SpeedMPH,PrecipitationIn,Events,Conditions,WindDirDegrees,DateUTC
12:56 AM,62.1,50.0,65,29.90,10.0,Calm,Calm,-,N/A,,Clear,0,2013-08-03 07:56:00
1:56 AM,61.0,50.0,67,29.89,10.0,Calm,Calm,-,N/A,,Clear,0,2013-08-03 08:56:00
2:56 AM,60.1,50.0,69,29.89,10.0,Calm,Calm,-,N/A,,Clear,0,2013-08-03 09:56:00
3:56 AM,55.9,48.9,77,29.89,10.0,Calm,Calm,-,N/A,,Clear,0,2013-08-03 10:56:00
4:56 AM,54.0,48.0,80,29.90,10.0,Calm,Calm,-,N/A,,Clear,0,2013-08-03 11:56:00
5:56 AM,54.0,48.0,80,29.91,10.0,Calm,Calm,-,N/A,,Clear,0,2013-08-03 12:56:00
6:56 AM,55.0,48.0,77,29.92,10.0,Calm,Calm,-,N/A,,Clear,0,2013-08-03 13:56:00
7:56 AM,59.0,50.0,72,29.93,10.0,Calm,Calm,-,N/A,,Clear,0,2013-08-03 14:56:00
8:56 AM,64.0,51.1,63,29.93,10.0,Calm,Calm,-,N/A,,Clear,0,2013-08-03 15:56:00
9:56 AM,71.1,52.0,51,29.92,10.0,East,3.5,-,N/A,,Clear,80,2013-08-03 16:56:00
10:56 AM,78.1,51.1,39,29.91,10.0,Variable,4.6,-,N/A,,Clear,0,2013-08-03 17:56:00
11:56 AM,82.0,52.0,35,29.90,10.0,East,4.6,-,N/A,,Clear,90,2013-08-03 18:56:00
12:56 PM,84.9,52.0,32,29.88,10.0,East,4.6,-,N/A,,Clear,90,2013-08-03 19:56:00
1:56 PM,89.1,54.0,30,29.88,10.0,Calm,Calm,-,N/A,,Clear,0,2013-08-03 20:56:00
2:56 PM,90.0,48.0,24,29.87,10.0,West,8.1,-,N/A,,Clear,270,2013-08-03 21:56:00
3:56 PM,91.0,46.9,22,29.86,10.0,Variable,5.8,-,N/A,,Clear,0,2013-08-03 22:56:00
4:56 PM,91.0,48.9,23,29.85,10.0,SSW,12.7,-,N/A,,Clear,210,2013-08-03 23:56:00
5:56 PM,89.1,48.9,25,29.85,10.0,SW,6.9,-,N/A,,Clear,230,2013-08-04 00:56:00
6:56 PM,86.0,48.0,27,29.84,10.0,WSW,8.1,-,N/A,,Clear,250,2013-08-04 01:56:00
7:56 PM,81.0,48.0,31,29.86,8.0,NNE,4.6,-,N/A,,Clear,20,2013-08-04 02:56:00
8:56 PM,73.9,48.9,41,29.88,8.0,Calm,Calm,-,N/A,,Clear,0,2013-08-04 03:56:00
9:56 PM,71.1,48.0,44,29.90,9.0,Calm,Calm,-,N/A,,Clear,0,2013-08-04 04:56:00
10:56 PM,66.9,52.0,59,29.90,8.0,Calm,Calm,-,N/A,,Clear,0,2013-08-04 05:56:00
11:56 PM,66.9,48.0,51,29.91,8.0,Calm,Calm,-,N/A,,Clear,0,2013-08-04 06:56:00